Location: Peebles
(55.6412°N, 3.1714°W)
Time: 11:17:43
(UTC+00:00)

CUTE-I - Pass Details

Date: 14 December 2023
Orbit: 807 x 823 km, 98.7° (Epoch: 24 February)

Event Time Altitude Azimuth Distance (km) Brightness Sun altitude
Rises 06:52:47 0° 16° (NNE) 3,369 ? -12.9°
Reaches altitude 10° 06:55:08 10° 17° (NNE) 2,434 ? -12.6°
Maximum altitude 07:00:33 85° 107° (ESE) 835 ? -11.9°
Drops below altitude 10° 07:05:56 10° 196° (SSW) 2,420 ? -11.2°
Sets 07:08:16 0° 197° (SSW) 3,349 ? -10.9°
